Weather in Bogorodsk

Russia / Komi Republic     62°15′24″N   52°29′17″E
temp.,
°C
wind,
m/s
gust,
m/s
humid.,
%
clouds,
%
prec.,
mm/h
press.,
hPa
HPBL,
m
26 february, fri
fri2600:00−22sse3895100 0.0 1021256
03:00−23sse389599 0.0 1021246
06:00−25sse399569 0.0 1020232
09:00−23sse489270 0.0 1019311
12:00−18sse498992 0.0 1018483
15:00−16sse4108997 0.0 1016581
18:00−18se41193100 0.0 1015495
21:00−20se31195100 0.0 1014447
27 february, sat
sat2700:00−21se3109694 0.0 1013347
03:00−23ese389788 0.0 1014245
06:00−23ese399657 0.0 1013240
09:00−20se379338 0.0 1013333
12:00−14ese368765 0.0 1013432
15:00−12e368852 0.0 1013471
18:00−18ene239515 0.0 101321
21:00−19e22967 0.0 101520
28 february, sun
sun2800:00−21ese12980 0.0 101520
03:00−22se129823 0.0 101620
06:00−23sse12950 0.0 101620
09:00−19s12900 0.0 1017169
12:00−14ssw12820 0.0 1017380
15:00−13ssw12851 0.0 1017374
18:00−18sw129326 0.0 101720
21:00−17sw129454 0.0 101820
1 march, mon
mon100:00−19sw129681 0.0 101820
03:00−20sw229978 0.0 101920
06:00−20sw239977 0.0 101963
09:00−17ssw369577 0.0 1018243
12:00−13ssw3893100 0.0 1016348
15:00−10ssw41093100 0.1 1013460
18:00−9sw51294100 0.4 1008596
21:00−8sw51493100 1.2 1004662
2 march, tue
tue200:00−6sw61394100 1.6 1000761
03:00−3wsw51295100 2.7 997740
06:00−2w41091100 0.3 996781
09:00−1wsw499196 0.3 995905
12:000wsw5109099 0.3 9941089
15:00−1w5109399 0.9 993944
18:00−3wsw51195100 0.4 992729
21:00−2w41094100 0.8 993706